Location: Starhoo Observatory
(41.8578°N, 70.9669°W)
Time: 23:49:11
(UTC-04:00)

ISS - Visible Passes

Search period start: 03 September 2015 00:00
Search period end: 13 September 2015 00:00
Orbit: 400 x 403 km, 51.6° (Epoch: 01 September)

Date Brightness Start Highest point End Pass type
(mag) Time Alt. Az. Time Alt. Az. Time Alt. Az.
07 Sep -0.5 05:25:09 10° SSE 05:26:47 13° SE 05:28:31 10° E visible
09 Sep -1.7 05:13:31 10° SSW 05:16:24 30° SE 05:19:19 10° ENE visible
10 Sep -0.9 04:22:46 15° SE 04:23:17 16° SE 04:25:23 10° E visible
11 Sep -3.2 05:04:32 27° SW 05:06:07 71° SE 05:09:23 10° ENE visible
12 Sep -1.7 04:13:36 31° ESE 04:13:36 31° ESE 04:15:57 10° ENE visible
12 Sep -2.2 05:46:21 10° W 05:49:20 32° NNW 05:52:21 10° NE visible
